Regional Weather Roundup
Issued by NWS

Home | Current Version | Previous Version | Text Only | Print | Product List | Glossary Off
Versions: 1 2 3 4 5 6 7 8 9 10 11 12 13 14 15 16 17 18 19 20 21 22 23 24 25 26 27 28 29 30 31 32 33 34 35 36 37 38 39 40 41 42 43 44 45 46 47 48 49 50

725
ASUS44 KJAN 300410
RWRMS

MISSISSIPPI HOURLY WEATHER ROUNDUP
NATIONAL WEATHER SERVICE JACKSON MS
1100 PM CDT MON SEP 29 2014

NOTE: "FAIR: INDICATES FEW OR NO CLOUDS BELOW 12,000 FEET WITH NO
SIGNIFICANT WEATHER AND/OR OBSTRUCTIONS TO VISIBILITY.

MSZ001>002-007>008-010>013-018>021-025>028-034>036-300500-
NORTHWEST MISSISSIPPI

CITY           SKY/WX    TMP DP  RH WIND       PRES   REMARKS
CLARKSDALE     FAIR      66  63  88 N3        29.94F
CLEVELAND      FAIR      69  62  79 CALM      29.92F
GREENWOOD      CLEAR     64  62  93 CALM      29.93S FOG
GREENVILLE     CLEAR     68  58  70 NE5       29.92F
GRENADA        FAIR      64  63  94 CALM      29.94S
OLIVE BRANCH   CLEAR     68  64  88 NE3       29.95F
OXFORD         FAIR      63  63 100 CALM      29.96F
TUNICA         CLEAR     63  61  94 CALM      29.95S
$$

MSZ003>006-009-014>017-022>024-029>033-037>039-300500-
NORTHEAST MISSISSIPPI

CITY           SKY/WX    TMP DP  RH WIND       PRES   REMARKS
COLUMBUS AFB   CLEAR     66  64  94 CALM      29.93S
CORINTH          N/A     63  61  94 CALM      29.95S
GOLDN TRIANGLE CLEAR     72  61  68 CALM      29.92S
STARKVILLE     FAIR      64  63  94 CALM      29.93S
TUPELO         CLEAR     67  61  81 NE5       29.94S
$$

MSZ040-058-300500-
CENTRAL MISSISSIPPI

CITY           SKY/WX    TMP DP  RH WIND       PRES   REMARKS
JACKSON INTL   CLEAR     71  67  87 CALM      29.92S
JACKSON HAWKNS CLEAR     72  66  81 CALM      29.93S
MERIDIAN KEY   CLEAR     69  67  93 CALM      29.92S
MERIDIAN NAS   PTCLDY    71  67  87 CALM      29.92S
RAYMOND        FAIR      68  64  88 CALM      29.92F HAZE
VICKSBURG      CLEAR     69  67  93 N3        29.92S
$$

MSZ059>079-300500-
SOUTH MISSISSIPPI

CITY           SKY/WX    TMP DP  RH WIND       PRES   REMARKS
BROOKHAVEN     FAIR      70  70 100 CALM      29.94S
COLUMBIA       CLOUDY    70  70 100 CALM      29.90S
HATTIESBURG    CLOUDY    74  72  93 CALM      29.91S
MCCOMB         CLEAR     75  68  78 N3        29.91F
NATCHEZ        CLOUDY    73  70  88 CALM      29.92F
PINE BELT      CLEAR     70  66  88 N3        29.92S
$$

MSZ080>082-300500-
COASTAL MISSISSIPPI

CITY           SKY/WX    TMP DP  RH WIND       PRES   REMARKS
BILOXI         CLEAR     76  74  94 NE5       29.88F
PASCAGOULA     MOCLDY    74  72  93 N5        29.88F
GULFPORT       PTCLDY    77  72  84 N3        29.88S
$$



USA.gov is the U.S. government's official web portal to all federal, state and local government web resources and services.